STARLINK-36266, 67984

Orbit data source: Space-Track

STARLINK-36266, 67984 is a payload satellite owned by SpaceX/Seattle (US) in SSO that was launched on Wed, 25 Feb 2026 UTC via an FALCON 9 launch vehicle from the Air Force Western Test Range (AFWTR). Payload-class satellites include a variety of spacecraft equipped with specific instruments for various scientific and technological missions. These include communications satellites like Starlink; space stations such as the ISS; scientific satellites like the Hubble; Earth observation satellites from companies like Planet Labs, Umbra, and HawkEye 360; GPS; miniature CubeSats for education and research; and military/defense satellites.

Loading next visibility...
Identifier
67984, 2026-038Z
Orbit
SSO
Country
Flag of USUS
Related business
Manufacturer
SpaceX/Seattle
Mission
Operational Commercial Communications
Bus & Motor
STARLINK V2MO, Unknown motor
Mass
575 kg wet, ~530 kg dry
Launch date (UTC)
2026-02-25 (4 months ago)
Launch vehicle
FALCON 9
Launch site
Air Force Western Test Range (AFWTR)
Object type
Payload
Rocket body
Debris
Shape & HBR
Box + 2 Pan, 17.7 m
Radar Cross Section
36.964 m², Large (>1 m²)

Expand to show TLE details & history
Last TLE update: 22 hours ago

TLE from 22 hours ago
0 STARLINK-36266
1 67984U 26038Z   26170.93839386  .00006116  00000-0  19160-3 0  9992
2 67984  97.2841 180.6740 0001686  89.6246 270.5190 15.33447712 18919
Epoch: 2026-06-19T22:31Z
TLE epoch observation values (Epoch: 2026-06-19T22:31:17.229Z)
Latitude
-0.00002°
Longitude
-65.30797°
Altitude
468.637 km
Speed
7.632 km/s
True Right ascension
12h 02m 41s
True Declination
0° 00' 00"
Sunlit
Object was in daylight at epoch
Visualization orbit readout
Latitude
Unknown
Longitude
Unknown
Altitude
Unknown
Speed
Unknown
Apparent Right ascension
Unknown
Apparent Declination
Unknown
Sunlit
N/A
Visualization observer readout
Local Sidereal Time
07:16:28
Azimuth
Unknown
Elevation
Unknown
Doppler factor
Unknown
Orbital elements
Apogee altitude
463.631 km
Perigee altitude
461.324 km
Semi-major axis
6,840.615 km
Eccentricity
0.00017
Inclination
97.2841°
RAAN
180.674°
Arg. of periapsis
89.6246°
True anomaly
270.49968°
Mean anomaly
270.519°
Eccentric anomaly
270.50934°
Mean motion
3.83619 °/min
Orbital period
93.84 mins
BSTAR
0.0001916
Loading maneuver chart data...
Computing Atmospheric mass density...
Loading historical data...
Loading historical data...
Loading historical data...
Loading historical data...
Loading historical data...
Loading historical data...
Loading historical data...

Documentation

Showing up to 5 results
|